User: anonymous   Login
Location: Gleizolles
(44.4833°N, 6.7667°E)
Time: 12:04:31
(UTC+00:00)
Language:

LilacSat-2 - Orbit

View from above orbital plane
View from above orbital plane
View from above satellite
View from above satellite

Ground track
Ground track

The orbit data is extracted from the following two-line orbital elements,

1 40908U 15049K   22342.26584491  .00003495  00000-0  18013-3 0  9999
2 40908  97.5221 341.3141 0015928 128.9365  55.7502 15.16935203398824
Epoch (UTC): 08 December 2022 06:22:49
Eccentricity: 0.0015928
inclination: 97.5221°
perigee height: 504 km
apogee height: 526 km
right ascension of ascending node: 341.3141°
argument of perigee: 128.9365°
revolutions per day: 15.16935203
mean anomaly at epoch: 55.7502°
orbit number at epoch: 39882

The dashed part of the orbit path shows where the satellite is in the earth's shadow,  

DLR